ECHOSTAR 23

Last updated on Wed Sep 17 2025 00:02:49 GMT+0000 (Coordinated Universal Time)

1 42070U 17014A 25258.63414951 .00000000 00000+0 00000+0 0 9999 2 42070 0.0245 148.6619 0002034 23.9637 300.6070 1.00269765 31174
UTC large
Height (km)
Speed (km/s)
/
Latitude / Longitude
Inclination (degrees)
Orbital Period (minutes)
Azimuth
Elevation
Range (km)
Doppler Factor

Next 0 passes for location: London (51.5072 / 0.1276)

Sorry there are no passes over London.